Baker, MT

6:01 PM MDT on June 23, 2017 (GMT -0600)
Baker Municipal

Weather History for KBHK - December, 2011

Change the Weather History Date:

Sunday, December 11, 2011

  Actual Average Record
Temperature  
Mean Temperature 29 °F -  
Max Temperature 39 °F -4 °F 57 °F (2014)
Min Temperature 19 °F 12 °F -18 °F (2000)
Degree Days  
Heating Degree Days 36    
Moisture  
Dew Point 19 °F    
Average Humidity 71    
Maximum Humidity 88    
Minimum Humidity 48    
Precipitation  
Precipitation 0.00 in - - ()
Sea Level Pressure  
Sea Level Pressure 29.98 in    
Wind  
Wind Speed 4 mph (NNW)    
Max Wind Speed 9 mph    
Max Gust Speed -    
Visibility 10 miles    
Events      
Averages and records for this station are not official NWS values.
T = Trace of Precipitation, MM = Missing Value Source: NWS Daily Summary

Daily Weather History Graph

Daily Weather History Graph

Search for Another Location

Airport or City:

Trip Planner

Search our weather history database for the weather conditions in past years. The results will help you decide how hot, cold, wet, or windy it might be!

Date:

Astronomy

Dec. 11, 2011 Rise Set
Actual Time 7:30 AM MST 4:10 PM MST
Civil Twilight 6:55 AM MST 4:45 PM MST
Nautical Twilight 6:17 AM MST 5:23 PM MST
Astronomical Twilight 5:40 AM MST 5:59 PM MST
Moon 5:23 PM MST (12/11) 8:20 AM MST (12/11)
Length of Visible Light 9h 49m
Length of Day
8h 40m
Full, 99% of the Moon is Illuminated
Dec 11
Full
Dec 17
Last Quarter
Dec 24
New
Dec 31
First Quarter
Jan 9
Full

Hourly Weather History & Observations

Time (MST) Temp. Windchill Dew Point Humidity Pressure Visibility Wind Dir Wind Speed Gust Speed Precip Events Conditions
12:51 AM 26.1 °F 21.9 °F 19.0 °F 75% 29.87 in 10.0 mi West 3.5 mph - N/A   Clear
1:51 AM 27.0 °F 20.5 °F 18.0 °F 69% 29.87 in 10.0 mi North 5.8 mph - N/A   Clear
2:51 AM 26.1 °F 16.8 °F 18.0 °F 71% 29.88 in 10.0 mi NW 9.2 mph - N/A   Clear
3:51 AM 27.0 °F - 18.0 °F 69% 29.88 in 10.0 mi Calm Calm - N/A   Clear
4:51 AM 26.1 °F - 18.0 °F 71% 29.89 in 10.0 mi Calm Calm - N/A   Clear
5:51 AM 24.1 °F 19.7 °F 16.0 °F 71% 29.90 in 10.0 mi West 3.5 mph - N/A   Clear
6:51 AM 19.9 °F 13.4 °F 15.1 °F 81% 29.92 in 10.0 mi NW 4.6 mph - N/A   Clear
7:51 AM 21.9 °F - 16.0 °F 78% 29.94 in 10.0 mi Calm Calm - N/A   Clear
8:51 AM 23.0 °F - 18.0 °F 81% 29.95 in 10.0 mi Calm Calm - N/A   Clear
9:51 AM 30.9 °F - 19.9 °F 64% 29.95 in 10.0 mi Calm Calm - N/A   Clear
10:51 AM 36.0 °F 31.1 °F 19.9 °F 52% 29.95 in 10.0 mi WNW 5.8 mph - N/A   Clear
11:51 AM 37.9 °F 32.7 °F 19.9 °F 48% 29.94 in 10.0 mi NW 6.9 mph - N/A   Clear
12:51 PM 39.0 °F 35.7 °F 21.9 °F 50% 29.95 in 10.0 mi NNW 4.6 mph - N/A   Clear
1:51 PM 37.0 °F 31.0 °F 21.9 °F 54% 29.96 in 10.0 mi NNW 8.1 mph - N/A   Clear
2:51 PM 37.0 °F 30.4 °F 21.9 °F 54% 29.96 in 10.0 mi NNW 9.2 mph - N/A   Clear
3:51 PM 33.1 °F 27.7 °F 21.9 °F 64% 29.99 in 10.0 mi North 5.8 mph - N/A   Clear
4:51 PM 28.9 °F 25.2 °F 21.0 °F 72% 30.01 in 10.0 mi North 3.5 mph - N/A   Clear
5:51 PM 24.1 °F - 19.0 °F 81% 30.05 in 10.0 mi Calm Calm - N/A   Clear
6:51 PM 19.9 °F - 16.0 °F 85% 30.09 in 10.0 mi Calm Calm - N/A   Clear
7:51 PM 24.1 °F - 18.0 °F 77% 30.09 in 10.0 mi Calm Calm - N/A   Clear
8:51 PM 21.9 °F 13.4 °F 18.0 °F 85% 30.10 in 10.0 mi ENE 6.9 mph - N/A   Clear
9:51 PM 21.0 °F 14.6 °F 18.0 °F 88% 30.11 in 10.0 mi ENE 4.6 mph - N/A   Clear
10:51 PM 21.9 °F 13.4 °F 18.0 °F 85% 30.10 in 10.0 mi East 6.9 mph - N/A   Clear
11:51 PM 21.0 °F 14.6 °F 17.1 °F 85% 30.12 in 10.0 mi ESE 4.6 mph - N/A   Clear